Regional Weather Roundup
Issued by NWS

Home | Current Version | Previous Version | Graphics & Text | Print | Product List | Glossary On
Versions: 1 2 3 4 5 6 7 8 9 10 11 12 13 14 15 16 17 18 19 20 21 22 23 24 25 26 27 28 29 30 31 32 33 34 35 36 37 38 39 40 41 42 43 44 45 46 47 48 49 50
000
ASUS43 KIND 310159
RWRIN

WEATHER ROUNDUP FOR INDIANA
NATIONAL WEATHER SERVICE INDIANAPOLIS IN
1000 PM EDT SAT JUL 30 2016

NOTE: "FAIR" INDICATES FEW OR NO CLOUDS BELOW 12,000 FEET WITH NO
SIGNIFICANT WEATHER AND/OR OBSTRUCTIONS TO VISIBILITY.

* - STATION DOES NOT REPORT WEATHER SUCH AS PRECIPITATION OR FOG.

+ - STATION NOT QUALITY CONTROLLED BY THE NATIONAL WEATHER SERVICE.
    USE DATA WITH CAUTION...ESPECIALLY DEWPOINT AND RELATIVE
    HUMIDITY OBSERVATIONS.

INZ001>003-010>013-019-020-310300-
NORTHWEST INDIANA

CITY           SKY/WX    TMP DP  RH WIND       PRES   REMARKS
GARY /AIRPORT/ MOCLDY    73  70  88 N10       29.99S
KNOX *+        PTCLDY    66  63  88 N5        29.97S
MONTICELLO +   CLOUDY    69  63  80 N3        29.95S
RENSSELAER +   CLEAR     68  66  94 N6        29.97R

$$

LMZ046-743>745-310300-
SOUTHERN LAKE MICHIGAN

STATION/POSITION TIME  TEMP    WIND        PRES    WAVE
                       AIR SEA DIR/SP/G            HT
                 (UTC) (F)     (DEG/KT/KT) (MB)    (FT)
BURNS HARBOR     0100   70      30/ 11/ 14 1015.6S
MICHIGAN CITY    0100   70      10/ 15/ 15   N/A
5NW MICH CITY    0100   72 73   30/ 14/ 17   N/A     3

$$

INZ004-005-014>016-021>024-310300-
NORTH CENTRAL INDIANA

CITY           SKY/WX    TMP DP  RH WIND       PRES   REMARKS
GOSHEN         PTCLDY    72  66  81 NE7       29.98R
SOUTH BEND     MOCLDY    70  66  87 N10       29.98R

$$

INZ006>009-017-018-025>027-310300-
NORTHEAST INDIANA

CITY           SKY/WX    TMP DP  RH WIND       PRES   REMARKS
ANGOLA *+        N/A     72  63  73 VRB3      29.98R
FORT WAYNE     MOCLDY    73  69  87 W5        29.96R

$$

INZ028-029-035-036-043>045-051>053-310300-
WEST CENTRAL INDIANA

CITY           SKY/WX    TMP DP  RH WIND       PRES   REMARKS
CRAWFORDSVL +  CLEAR     67  67 100 SW3       29.97R
GREENCASTLE +  PTCLDY    70  70 100 CALM      29.98R
LAFAYETTE      CLEAR     72  68  87 N7        29.95R
TERRE HAUTE    PTCLDY    74  65  73 CALM      29.96R

$$

INZ030>032-037>040-046>048-054>057-064-065-310300-
CENTRAL INDIANA

CITY           SKY/WX    TMP DP  RH WIND       PRES   REMARKS
COLUMBUS       PTCLDY    73  70  88 W3        29.96R
INDIANAPOLIS   MOCLDY    75  66  73 W5        29.97R
-EAGLE CREEK   PTCLDY    76  67  73 MISG      29.96R
KOKOMO *+      CLEAR     70  64  83 N3        29.96R
SHELBYVILLE    CLEAR     75  66  73 W7        29.95R
ZIONSVILLE +   CLEAR     69  66  89 W3        29.97R

$$

INZ033-034-041-042-049-050-058-059-310300-
EAST CENTRAL INDIANA

CITY           SKY/WX    TMP DP  RH WIND       PRES   REMARKS
MUNCIE         CLEAR     74  67  78 NW3       29.95S

$$

INZ060-061-067>069-081>083-085>088-310300-
SOUTHWEST INDIANA

CITY           SKY/WX    TMP DP  RH WIND       PRES   REMARKS
EVANSVILLE     CLEAR     76  70  82 CALM      29.97R
HUNTINGBURG *+ CLEAR     75  70  83 CALM      29.97S
WASHINGTON +   CLEAR     71  71 100 MISG      29.96S

$$

INZ062-063-066-070>080-084-089>092-310300-
SOUTH CENTRAL AND SOUTHEAST INDIANA

CITY           SKY/WX    TMP DP  RH WIND       PRES   REMARKS
BLOOMINGTON    CLEAR     70  67  90 CALM      29.97R
MADISON *+     CLEAR     73  70  88 CALM      29.99R
SEYMOUR +      CLEAR     73  72  94 SW6       29.96R

$$





USA.gov is the U.S. government's official web portal to all federal, state and local government web resources and services.